Location: Holiday Acres Laynes 2 Mobile Home Park
(26.7249°N, 81.8671°W)
Time: 11:42:54
(UTC+00:00)

X-37B - Pass Details

Date: 25 November 2020
Orbit: 383 x 391 km, 45.1° (Epoch: 22 January)

Event Time Altitude Azimuth Distance (km) Brightness Sun altitude
Rises 22:51:01 0° 225° (SW) 2,243 5.9 -4.3°
Reaches altitude 10° 22:53:04 10° 223° (SW) 1,394 4.6 -4.7°
Maximum altitude 22:56:11 70° 139° (SE) 410 0.6 -5.4°
Drops below altitude 10° 22:59:20 10° 55° (NE) 1,404 2.8 -6.0°
Enters shadow 22:59:52 - 54° (NE) 1,619 3.1 -6.1°
